Other Public Products
Issued by NWS Grand Forks, ND

Home | Current Version | Previous Version | Text Only | Print | Product List | Glossary Off
Versions: 1 2 3 4 5 6 7 8 9 10 11 12 13 14 15 16 17 18 19 20 21 22 23 24 25 26 27 28 29 30 31 32 33 34 35 36 37 38 39 40 41 42 43 44 45 46 47 48 49 50

000
FPUS83 KFGF 031510
OPUFGF
PRAIRIE TO PINES WEATHER ROUNDUP
NATIONAL WEATHER SERVICE EASTERN NORTH DAKOTA/GRAND FORKS ND
900 AM CST SAT DEC 03 2016

 **SATELLITE DATA USED TO AUGMENT SKY COVER AT AUTOMATED STATIONS**
 *****  WEATHER ACROSS EASTERN NORTH DAKOTA  *****

CITY           SKY/WX    TMP DP  RH WIND       PRES   REMARKS
GRAND FORKS    CLOUDY    28  21  75 S12       30.16F WCI  18
GRAND FORKS AF CLOUDY    27  22  81 S13       30.14F WCI  16
GRAND CITY NWS   N/A     27 N/A N/A S12         N/A  WCI  16
BUXTON         NOT AVBL
DEVILS LAKE    FLURRIES  26  25  96 S20       30.05S WCI  12
FARGO          CLOUDY    28  20  71 S12       30.20F WCI  18
WAHPETON ARPT  CLOUDY    27  19  74 SE10      30.22F WCI  17
$$

 *****  WEATHER ACROSS CENTRAL AND WESTERN NORTH DAKOTA  *****

CITY           SKY/WX    TMP DP  RH WIND       PRES   REMARKS
JAMESTOWN      CLOUDY    28  26  92 S16G24    30.07F WCI  16
BISMARCK       CLOUDY    24  24 100 SE13      29.99F FOG     WCI  12
MINOT          CLEAR     24  20  84 SE12      29.89F WCI  13
MINOT AFB      CLEAR     22  19  87 S7        29.88F WCI  13
GARRISON         N/A     24  22  91 SE14      29.92F WCI  12
WILLISTON      CLOUDY    18  15  88 S5        29.83F WCI  11
DICKINSON      CLEAR     15  12  88 S13       29.85F WCI   1
HETTINGER      CLEAR     14  12  92 CALM      29.90F
$$

 *****  OTHER OBSERVATIONS NORTHEAST NORTH DAKOTA  *****

CITY           SKY/WX    TMP DP  RH WIND       PRES   REMARKS
WALHALLA         N/A     27  27 100 S13       30.09F WCI  16
LANGDON        CLOUDY    27  27 100 S21       30.04S WCI  13
CAVALIER         N/A     27  25  93 S18G24    30.11F WCI  13
GRAFTON        CLOUDY    27  23  86 S20       30.15F WCI  13
CANDO          CLOUDY    28  28 100 S16G23    30.04F WCI  17
FORT TOTTEN      N/A     26  26 100 S14       29.95S WCI  14
ROLLA          CLOUDY    25  25 100 S12G17    29.99F FOG     WCI  14
RUGBY            N/A     25  25 100 S16G22    29.97F WCI  12
 ***** THE ABOVE OBSERVATIONS ARE NON NWS ARE NOT QUALITY
        CONTROLLED AND MAY MIS-REPORT RAIN FOR SNOW...
$$

 *****  OTHER OBSERVATIONS SOUTHEAST NORTH DAKOTA *****

CITY           SKY/WX    TMP DP  RH WIND       PRES   REMARKS
COOPERSTOWN    CLOUDY    27  25  93 S18       30.10F WCI  13
VALLEY CITY    CLOUDY    28  28 100 S13       30.13F WCI  18
OAKES          NOT AVBL
GWINNER        CLOUDY    28  27  93 SE13      30.15F WCI  18
SHEYENNE NWR     N/A     26  20  77 SE9       29.95S WCI  17
BUFFALO        NOT AVBL
WYNDMERE       NOT AVBL
 ***** THE ABOVE OBSERVATIONS ARE NON NWS ARE NOT QUALITY
       CONTROLLED AND MAY MIS-REPORT RAIN FOR SNOW...
$$

  *****  WEATHER ACROSS NORTHERN MINNESOTA  *****

CITY           SKY/WX    TMP DP  RH WIND       PRES   REMARKS
FLAG ISLAND    CLOUDY    28  21  74 S10G18    30.17S WCI  19
WARROAD        CLOUDY    27  21  80 S7        30.18F WCI  19
ROSEAU         CLOUDY    27  21  80 S10       30.17F WCI  17
HALLOCK        CLOUDY    27  23  86 S18G24    30.14F WCI  13
THF RVR FALLS    N/A     24  19  81 S15       30.19  WCI  11
HALSTAD          N/A     26  21  81 S12         N/A  WCI  16
FOSSTON        CLOUDY    21  18  86 S16       30.20S WCI   7
BAUDETTE       CLOUDY    26  21  81 S5        30.19F WCI  20
WASKISH        CLOUDY    25  19  80 S3        30.21F
CROOKSTON      CLOUDY    27  19  74 S15       30.20S WCI  15
$$
  *****  WEATHER ACROSS CENTRAL AND WEST MINNESOTA  *****

CITY           SKY/WX    TMP DP  RH WIND       PRES   REMARKS
BEMIDJI        CLOUDY    23  18  81 S10       30.20F WCI  12
PARK RAPIDS    CLOUDY    24  16  71 S8        30.21F WCI  15
WADENA         CLOUDY    23  19  86 S6        30.22F WCI  16
DETROIT LAKES  MOCLDY    25  21  86 S10       30.21F WCI  15
MOORHEAD       CLOUDY    27  19  74 S14       30.21F WCI  15
FERGUS FALLS   CLOUDY    25  19  80 S12       30.26F WCI  14
ELBOW LAKE     CLOUDY    25  19  80 S9        30.22F WCI  15
MORRIS MN      MOCLDY    27  21  80 SE9       30.22F WCI  17
STAPLES        CLOUDY    23  18  80 S5        30.24S WCI  17
WHEATON        CLOUDY   N/A N/A N/A SE9       30.23
$$
  *****  WEATHER ELSEWHERE ACROSS MINNESOTA  *****

CITY           SKY/WX    TMP DP  RH WIND       PRES   REMARKS
DULUTH         FLURRIES  27  23  85 NW5       30.24S WCI  22
INTRNTL FALLS  CLOUDY    24  20  84 SE3       30.22F
ELY            CLOUDY    23  21  93 CALM      30.23F FOG
CLOQUET        CLOUDY    27  23  86 CALM      30.25S
BRAINERD       CLOUDY    25  18  74 S8        30.25F WCI  16
HIBBING        CLOUDY    24  19  81 CALM      30.23F
ALEXANDRIA     CLOUDY    24  18  77 SW12      30.24F WCI  13
SAINT CLOUD    CLOUDY    27  20  75 SW7       30.28S WCI  19
MINNEAPOLIS    CLOUDY    29  20  69 W5        30.30S WCI  24
$$

  *****  WEATHER ACROSS SOUTH DAKOTA  *****

CITY           SKY/WX    TMP DP  RH WIND       PRES   REMARKS
SIOUX FALLS    MOSUNNY   30  28  92 SE10      30.19F WCI  21
BROOKINGS      CLEAR     27  24  89 SE14      30.16F WCI  16
WATERTOWN      CLEAR     25  21  85 SE9       30.14F WCI  15
HURON          CLOUDY    28  26  92 S12       30.13F WCI  18
SISSETON         N/A     26  21  81 SE10      30.18F WCI  16
ABERDEEN       CLEAR     26  22  84 SE12      30.12F WCI  16
MITCHELL       CLOUDY    28  26  92 SE9       30.15F WCI  19
PIERRE         CLOUDY    27  24  89 SE15      30.02F WCI  15
MOBRIDGE       MOCLDY    27  22  81 S16       29.97F WCI  15
RAPID CITY     CLEAR     19  14  81 NE3       29.89F
$$

  *****  SOME WEATHER IN NEARBY STATES *****

CITY           SKY/WX    TMP DP  RH WIND       PRES   REMARKS
GLASGOW MT     CLOUDY    32  28  85 S10       29.75S WCI  24
GREAT FALLS MT CLEAR     30  21  69 SW16      29.84R WCI  19
CHEYENNE WY    CLOUDY    26   2  35 SW15G26   29.96S WCI  14
SCOTTSBLUFF NE CLEAR     19  13  77 E6        30.00F WCI  11
OMAHA NE       CLOUDY    27  24  89 CALM      30.27F
DES MOINES IA  PTSUNNY   37  30  75 S5        30.31S
DAVENPORT IA   CLOUDY    33  24  69 N6        30.34F
CHICAGO IL     CLOUDY    32  21  64 NW9       30.33F WCI  24
EAU CLAIRE WI  CLOUDY    29  25  85 SW3       30.29F
LA CROSSE WI   CLOUDY    32  23  69 CALM      30.32S
$$

  *****  SOME NATIONAL WEATHER *****

CITY           SKY/WX    TMP DP  RH WIND       PRES   REMARKS
LA GUARDIA NY  PTSUNNY   45  26  47 NW21G32   30.03R
RALEIGH NC     MOSUNNY   46  27  47 N6        30.31R
ATLANTA GA     CLOUDY    48  32  53 N9        30.27S
NEW ORLEANS LA CLOUDY    59  48  67 NE14      30.14R
OKLAHOMA CITY  LGT RAIN  45  42  89 E6        30.20R
ALBUQUERQUE NM FLURRIES  32  31  96 N5        30.11R
SALT LAKE CITY CLOUDY    29  19  66 SE10      30.29R WCI  20
LOS ANGELES CA CLEAR     49  19  30 SE6       30.11S
BOISE ID       CLOUDY    35  25  66 CALM      30.25R
SEATTLE WA     MOCLDY    45  42  89 S12       30.26R
$$

*** WEATHER ACROSS MANITOBA...SASKATCHEWAN AND ONTARIO ***
                ***ONTARIO***

CITY           SKY/WX    TMP DP  RH WIND       PRES   REMARKS
GERALDTON      FLURRIES  23  19  86 N3        30.23R
THUNDER BAY    PTSUNNY   28  27  93 W5        30.27S WCI  23
SIOUX LOOKOUT  FRZ DRZL  21  18  86 SW8       30.21R WCI  12
TORONTO        MOSUNNY   39  28  65 NW17G24   30.17R
BIG TROUT LK   LGT SNOW  10   9  92 SW6       30.24F WCI   1
PICKLE LAKE    LGT SNOW  19  18  93 SE3       30.21S
DRYDEN         MOCLDY    19  18  93 S3        30.19F
KENORA         CLOUDY    23  21  93 SE3       30.16F
$$
                *** MANITOBA***

CITY           SKY/WX    TMP DP  RH WIND       PRES   REMARKS
BRANDON        MOCLDY    27  23  86 SE9       29.93F WCI  17
DAUPHIN        PTCLDY    23  21  93 E10       29.90F WCI  12
ISLAND LAKE    FLURRIES   7   3  85 S6        30.17  WCI  -3
PILOT MOUND      N/A     27  25  93 S22         N/A  WCI  12
THE PAS        CLOUDY    28  25  86 SE12G18   29.89F WCI  18
THOMPSON       NOT AVBL
WINNIPEG       FLURRIES  27  23  86 S17G23    30.10F WCI  14
LYNN LAKE      CLOUDY    21  21 100 SE10      29.90S WCI  10
CHURCHILL      PTCLDY     0  -4  85 S7        30.12S WCI -13
GILLAM         LGT SNOW   9   7  92 S7        30.16R WCI  -3
$$
                ***SASKATCHEWAN***

CITY           SKY/WX    TMP DP  RH WIND       PRES   REMARKS
ESTEVAN        MOCLDY    25  19  80 S15       29.80S WCI  12
KINDERSLEY     FOG       19  18  93 NW3       29.66R VSB 1/2
LLOYDMINSTER   CLOUDY    21  21 100 CALM      29.68R FOG
PRINCE ALBERT  CLOUDY    28  25  86 SE14      29.71F WCI  17
REGINA         LGT SNOW  21  19  93 SE14      29.69F WCI   8
YORKTON        CLOUDY    27  25  93 SE16      29.78F WCC1F1C2F2C3F3C4F4C5F5C6F6C7F7C8F8C9F9CaFaCbFbCcFcCdFdCe!



USA.gov is the U.S. government's official web portal to all federal, state and local government web resources and services.